Tracking 19832 objects as of 26-Aug-2019
HD Live streaming from Space Station
objects crossing your sky now

COSMOS 1581

Track COSMOS 1581 now!
COSMOS 1581 is classified as:


NORAD ID: 15095
Int'l Code: 1984-071A
Perigee: 3,732.4 km
Apogee: 36,791.9 km
Inclination: 66.2 °
Period: 720.9 minutes
Semi major axis: 26633 km
RCS: 9.1322 m2 (large)
Launch date: July 3, 1984
Source: Commonwealth of Independent States (former USSR) (CIS)
Launch site: PLESETSK MISSILE AND SPACE COMPLEX (PKMTR)
aabbcc
Your satellite tracking list
Your tracking list is empty




NASA's NSSDC Master Catalog

Two Line Element Set (TLE):
1 15095U 84071A   19234.80974762 -.00000343 +00000-0 +00000-0 0  9993
2 15095 066.1730 240.6014 6206449 048.4909 350.2594 01.99741634230734
Source of the keplerian elements: AFSPC